Home > Weather > Dalian > Past weeks

Flag for China Past Weather in Dalian, Liaoning, China — Yesterday and Last 2 Weeks

Now
91 °F

Scattered clouds.


Feels Like: 108 °F
Forecast: 77 / 85 °F
Wind: 8 mph from Southeast

Location: Dalian Airport

Current Time: Jul 24, 2016 at 12:54:35 PM

Latest Report: Jul 24, 2016 at 12:30 PM


Visibility: 5 mi

Pressure: 29.68 "Hg

Humidity: 67%

Dew Point: 79 °F

Location of DalianLocation

Past Weather in Dalian — Graph

°F

Dalian Temperature Yesterday

Maximum temperature yesterday: 90 °F (at 12:30 PM)
Minimum temperature yesterday: 77 °F (at 4:30 AM)
Average temperature yesterday: 81 °F

High & Low Weather Summary for the Past Weeks

 TemperatureHumidityPressure
High91 °F (Jul 24, 11:00 AM)100% (Jul 13, 3:30 AM)29.83 "Hg (Jul 13, 3:30 AM)
Low66 °F (Jul 17, 2:30 AM)43% (Jul 11, 5:00 PM)29.53 "Hg (Jul 12, 2:00 AM)
Average78 °F80%29.66 "Hg
* Reported Jul 9 11:00 AM — Jul 24 11:30 AM, Dalian, Weather by CustomWeather, © 2016

Note: Actual official high and low records may vary slightly from our data, if they occured in-between our weather recording intervals... More about our weather records

Advertising

Dalian Weather History for the Previous 24 Hours

Scroll right to see more
 ConditionsComfort  
Time TempWeatherWind HumidityBarometerVisibility
11:30 AM
Sun, Jul 24
91 °FScattered clouds.8 mph67%29.71 "Hg5 mi
11:00 AM91 °FScattered clouds.6 mph67%29.71 "Hg5 mi
10:30 AM88 °FScattered clouds.8 mph75%29.71 "Hg5 mi
10:00 AM86 °FScattered clouds.8 mph75%29.71 "Hg5 mi
9:30 AM86 °FScattered clouds.8 mph75%29.71 "Hg5 mi
9:00 AM88 °FScattered clouds.3 mph75%29.71 "Hg5 mi
8:30 AM86 °FClear.3 mph79%29.68 "Hg4 mi
8:00 AM82 °FFog.3 mph84%29.68 "Hg2 mi
7:30 AM81 °FFog.3 mph89%29.68 "Hg2 mi
7:00 AM79 °FFog.3 mph94%29.68 "Hg2 mi
6:30 AM79 °FFog.3 mph89%29.68 "Hg2 mi
6:00 AM77 °FFog.6 mph94%29.68 "Hg2 mi
5:30 AM75 °FFog.3 mph100%29.68 "Hg2 mi
5:00 AM75 °FFog.3 mph100%29.68 "Hg2 mi
4:30 AM75 °FFog.1 mph100%29.68 "Hg3 mi
4:00 AM75 °FFog.3 mph100%29.65 "Hg3 mi
3:30 AM75 °FFog.1 mph100%29.65 "Hg3 mi
3:00 AM75 °FFog.3 mph100%29.65 "Hg3 mi
2:30 AM75 °FFog.3 mph100%29.65 "Hg3 mi
2:00 AM75 °FFog.3 mph100%29.65 "Hg3 mi
1:30 AM75 °FClear.3 mph100%29.65 "Hg4 mi
1:00 AM77 °FClear.3 mph94%29.65 "Hg4 mi
12:30 AM77 °FClear.3 mph94%29.65 "Hg4 mi
12:00 AM77 °FClear.3 mph94%29.68 "Hg4 mi
11:30 PM
Sat, Jul 23
77 °FClear.1 mph94%29.68 "Hg4 mi
11:00 PM77 °FClear.3 mph94%29.68 "Hg4 mi
10:30 PM79 °FClear.3 mph89%29.68 "Hg4 mi
10:00 PM79 °FClear.3 mph89%29.65 "Hg4 mi
9:30 PM79 °FPassing clouds.6 mph94%29.65 "Hg4 mi
9:00 PM79 °FPassing clouds.3 mph94%29.65 "Hg4 mi
8:30 PM79 °FPassing clouds.3 mph94%29.62 "Hg4 mi
8:00 PM79 °FPassing clouds.6 mph94%29.62 "Hg4 mi
7:30 PM79 °FPassing clouds.1 mph89%29.59 "Hg4 mi
7:00 PM79 °FPartly sunny.6 mph94%29.59 "Hg4 mi
6:30 PM79 °FPartly sunny.6 mph94%29.59 "Hg4 mi
6:00 PM79 °FPartly sunny.8 mph94%29.62 "Hg4 mi
5:30 PM79 °FFog.8 mph94%29.62 "Hg3 mi
5:00 PM81 °FFog.8 mph89%29.59 "Hg2 mi
4:30 PM82 °FSprinkles. Fog.6 mph89%29.59 "Hg2 mi
4:00 PM82 °FFog.1 mph89%29.59 "Hg2 mi
3:30 PM82 °FSprinkles. Fog.1 mph89%29.59 "Hg2 mi
3:00 PM84 °FThunderstorms. Fog.3 mph84%29.62 "Hg2 mi
2:30 PM84 °FLight rain. Fog.6 mph84%29.62 "Hg3 mi
2:00 PM86 °FPartly sunny.8 mph75%29.62 "Hg4 mi
1:30 PM88 °FPartly sunny.8 mph75%29.62 "Hg4 mi
1:00 PM90 °FPartly sunny.8 mph71%29.59 "Hg5 mi
12:30 PM90 °FPartly sunny.8 mph71%29.62 "Hg4 mi
12:00 PM88 °FPartly sunny.8 mph75%29.62 "Hg4 mi
Weather by CustomWeather, © 2016

See weather overviewHow to use our weather pages